Salida, CO

3:53 PM MDT on March 24, 2017 (GMT -0600)
Salida

Weather History for KANK - May, 2013

Change the Weather History Date:

Wednesday, May 15, 2013

  Actual Average (KGUC) Record (KGUC)
Temperature  
Mean Temperature 59 °F -  
Max Temperature 72 °F 62 °F 71 °F (2001)
Min Temperature 46 °F 30 °F 24 °F (1998)
Degree Days  
Heating Degree Days 6    
Growing Degree Days 9 (Base 50)    
Moisture  
Dew Point 41 °F    
Average Humidity 62    
Maximum Humidity 92    
Minimum Humidity 21    
Precipitation  
Precipitation 0.00 in - - ()
Sea Level Pressure  
Sea Level Pressure 30.22 in    
Wind  
Wind Speed 5 mph (WSW)    
Max Wind Speed 18 mph    
Max Gust Speed 25 mph    
Visibility 10 miles    
Events      
Averages and records for this station are not official NWS values.
T = Trace of Precipitation, MM = Missing Value Source: NWS Daily Summary

Daily Weather History Graph

Daily Weather History Graph

Search for Another Location

Airport or City:

Trip Planner

Search our weather history database for the weather conditions in past years. The results will help you decide how hot, cold, wet, or windy it might be!

Date:

Astronomy

May. 15, 2013 Rise Set
Actual Time 5:52 AM MDT 8:09 PM MDT
Civil Twilight 5:22 AM MDT 8:39 PM MDT
Nautical Twilight 4:45 AM MDT 9:16 PM MDT
Astronomical Twilight 4:05 AM MDT 9:56 PM MDT
Moon 10:29 AM MDT (5/15) No Moon Set
Length of Visible Light 15h 16m
Length of Day
14h 17m
Waxing Crescent, 27% of the Moon is Illuminated
May 15
Waxing Crescent
May 17
First Quarter
May 24
Full
May 31
Last Quarter
Jun 8
New

Hourly Weather History & Observations

Time (MDT) Temp. Windchill Dew Point Humidity Pressure Visibility Wind Dir Wind Speed Gust Speed Precip Events Conditions
12:15 AM 52.0 °F - 44.1 °F 74% 30.27 in 10.0 mi SSE 4.6 mph - N/A   Mostly Cloudy
12:35 AM 51.6 °F - 43.9 °F 75% 30.27 in 10.0 mi Calm Calm - N/A   Scattered Clouds
12:55 AM 51.4 °F - 43.7 °F 75% 30.27 in 10.0 mi Calm Calm - N/A   Clear
1:15 AM 50.5 °F - 43.7 °F 77% 30.27 in 10.0 mi South 5.8 mph - N/A   Scattered Clouds
1:35 AM 51.6 °F - 43.0 °F 72% 30.25 in 10.0 mi WSW 5.8 mph - N/A   Scattered Clouds
1:55 AM 51.1 °F - 42.6 °F 73% 30.24 in 10.0 mi SW 6.9 mph - N/A   Overcast
2:15 AM 50.2 °F - 41.7 °F 73% 30.24 in 10.0 mi SW 5.8 mph - N/A   Scattered Clouds
2:35 AM 50.5 °F - 40.1 °F 67% 30.24 in 10.0 mi West 6.9 mph - N/A   Clear
2:55 AM 50.5 °F - 40.8 °F 69% 30.24 in 10.0 mi West 4.6 mph - N/A   Clear
3:15 AM 49.6 °F - 41.0 °F 72% 30.24 in 10.0 mi WSW 5.8 mph - N/A   Clear
3:35 AM 49.1 °F - 40.5 °F 72% 30.23 in 10.0 mi WSW 6.9 mph - N/A   Clear
3:55 AM 49.1 °F - 40.8 °F 73% 30.23 in 10.0 mi West 6.9 mph - N/A   Clear
4:15 AM 48.7 °F - 41.0 °F 75% 30.23 in 10.0 mi West 6.9 mph - N/A   Clear
4:35 AM 49.3 °F - 41.0 °F 73% 30.24 in 10.0 mi WNW 4.6 mph - N/A   Clear
4:55 AM 50.0 °F - 41.0 °F 71% 30.24 in 10.0 mi NW 3.5 mph - N/A   Clear
5:15 AM 49.6 °F - 41.0 °F 72% 30.23 in 10.0 mi West 6.9 mph - N/A   Scattered Clouds
5:35 AM 49.3 °F - 39.7 °F 70% 30.23 in 10.0 mi West 4.6 mph - N/A   Scattered Clouds
5:55 AM 48.2 °F - 41.0 °F 76% 30.23 in 10.0 mi NNW 3.5 mph - N/A   Clear
6:15 AM 48.2 °F - 40.8 °F 76% 30.23 in 10.0 mi WNW 4.6 mph - N/A   Clear
6:35 AM 50.0 °F - 40.1 °F 69% 30.24 in 10.0 mi NW 5.8 mph - N/A   Clear
6:55 AM 50.9 °F - 40.1 °F 67% 30.24 in 10.0 mi NW 4.6 mph - N/A   Scattered Clouds
7:15 AM 52.0 °F - 39.7 °F 63% 30.24 in 10.0 mi Calm Calm - N/A   Mostly Cloudy
7:35 AM 53.2 °F - 39.9 °F 61% 30.24 in 10.0 mi SSW 3.5 mph - N/A   Scattered Clouds
7:55 AM 54.7 °F - 40.3 °F 58% 30.24 in 10.0 mi NNW 4.6 mph - N/A   Clear
8:15 AM 55.6 °F - 39.0 °F 54% 30.24 in 10.0 mi North 4.6 mph - N/A   Clear
8:35 AM 57.7 °F - 38.7 °F 49% 30.24 in 10.0 mi Calm Calm - N/A   Clear
9:15 AM 59.5 °F - 39.9 °F 48% 30.23 in 10.0 mi Calm Calm - N/A   Overcast
9:35 AM 60.3 °F - 40.3 °F 48% 30.23 in 10.0 mi Calm Calm - N/A   Mostly Cloudy
9:55 AM 62.1 °F - 41.0 °F 46% 30.22 in 10.0 mi SW 4.6 mph - N/A   Mostly Cloudy
10:15 AM 65.1 °F - 39.6 °F 39% 30.21 in 10.0 mi Calm Calm - N/A   Scattered Clouds
10:35 AM 66.7 °F - 38.1 °F 35% 30.20 in 10.0 mi Calm Calm - N/A   Clear
10:55 AM 69.6 °F - 35.1 °F 28% 30.19 in 10.0 mi Calm Calm - N/A   Clear
11:15 AM 70.0 °F - 32.5 °F 25% 30.19 in 10.0 mi Calm Calm - N/A   Clear
11:35 AM 72.9 °F - 31.1 °F 21% 30.18 in 10.0 mi Calm Calm - N/A   Scattered Clouds
11:55 AM 69.4 °F - 34.7 °F 28% 30.19 in 10.0 mi ENE 15.0 mph 19.6 mph N/A   Scattered Clouds
12:15 PM 67.6 °F - 35.2 °F 30% 30.19 in 10.0 mi East 11.5 mph 21.9 mph N/A   Clear
12:35 PM 67.8 °F - 35.1 °F 30% 30.18 in 10.0 mi SE 10.4 mph 17.3 mph N/A   Mostly Cloudy
12:55 PM 67.6 °F - 34.5 °F 29% 30.19 in 10.0 mi SE 10.4 mph 18.4 mph N/A   Overcast
1:15 PM 66.6 °F - 34.0 °F 30% 30.19 in 10.0 mi SE 10.4 mph 16.1 mph N/A   Overcast
1:35 PM 66.2 °F - 34.7 °F 31% 30.19 in 10.0 mi SE 6.9 mph - N/A   Mostly Cloudy
1:55 PM 65.3 °F - 34.2 °F 31% 30.18 in 10.0 mi SE 8.1 mph - N/A   Mostly Cloudy
2:15 PM 66.2 °F - 35.1 °F 32% 30.17 in 10.0 mi SE 6.9 mph - N/A   Mostly Cloudy
2:35 PM 66.7 °F - 35.2 °F 31% 30.17 in 10.0 mi ESE 3.5 mph - N/A   Clear
2:55 PM 66.6 °F - 34.2 °F 30% 30.17 in 10.0 mi SE 5.8 mph - N/A   Mostly Cloudy
3:35 PM 64.6 °F - 39.0 °F 39% 30.17 in 10.0 mi North 10.4 mph - N/A   Clear
3:55 PM 65.1 °F - 38.5 °F 37% 30.17 in 10.0 mi NNW 13.8 mph 19.6 mph N/A   Clear
4:15 PM 65.7 °F - 37.9 °F 36% 30.17 in 10.0 mi North 11.5 mph 18.4 mph N/A   Clear
4:35 PM 65.3 °F - 37.9 °F 36% 30.17 in 10.0 mi NNW 12.7 mph 19.6 mph N/A   Scattered Clouds
4:55 PM 64.4 °F - 38.3 °F 38% 30.19 in 10.0 mi NNW 10.4 mph - N/A   Mostly Cloudy
5:15 PM 63.3 °F - 39.2 °F 41% 30.19 in 10.0 mi North 17.3 mph 21.9 mph N/A   Overcast
5:35 PM 58.8 °F - 46.6 °F 64% 30.22 in 7.0 mi SW 18.4 mph 25.3 mph N/A   Overcast
5:55 PM 52.9 °F - 48.2 °F 84% 30.22 in 7.0 mi SSW 11.5 mph - N/A   Overcast
6:15 PM 53.6 °F - 46.4 °F 77% 30.22 in 10.0 mi South 8.1 mph - N/A   Overcast
6:35 PM 54.0 °F - 45.5 °F 73% 30.22 in 10.0 mi West 10.4 mph - N/A   Overcast
6:55 PM 53.6 °F - 46.2 °F 76% 30.24 in 10.0 mi SW 12.7 mph 17.3 mph N/A   Overcast
7:15 PM 52.2 °F - 47.1 °F 83% 30.23 in 5.0 mi SSW 3.5 mph - N/A   Overcast
7:35 PM 52.0 °F - 48.2 °F 87% 30.22 in 10.0 mi Calm Calm - N/A   Mostly Cloudy
7:55 PM 52.0 °F - 47.8 °F 86% 30.22 in 10.0 mi Calm Calm - N/A   Scattered Clouds
8:15 PM 51.1 °F - 48.9 °F 92% 30.21 in 10.0 mi SSW 5.8 mph - N/A   Clear
8:35 PM 50.5 °F - 47.8 °F 90% 30.21 in 10.0 mi WSW 3.5 mph - N/A   Clear
8:55 PM 50.0 °F - 47.3 °F 90% 30.21 in 10.0 mi West 6.9 mph - N/A   Clear
9:15 PM 50.2 °F - 47.1 °F 89% 30.23 in 10.0 mi West 4.6 mph - N/A   Scattered Clouds
9:35 PM 50.2 °F - 46.9 °F 89% 30.24 in 10.0 mi West 3.5 mph - N/A   Overcast
9:55 PM 50.4 °F - 47.5 °F 90% 30.23 in 10.0 mi Calm Calm - N/A   Overcast
10:15 PM 49.3 °F - 45.7 °F 87% 30.24 in 10.0 mi WSW 5.8 mph - N/A   Scattered Clouds
10:35 PM 48.4 °F - 44.8 °F 87% 30.23 in 10.0 mi West 3.5 mph - N/A   Clear
10:55 PM 47.7 °F - 44.6 °F 89% 30.22 in 10.0 mi West 5.8 mph - N/A   Clear
11:15 PM 47.7 °F - 43.7 °F 86% 30.22 in 10.0 mi WSW 6.9 mph - N/A   Clear
11:35 PM 46.4 °F 44.3 °F 43.5 °F 90% 30.22 in 10.0 mi WNW 4.6 mph - N/A   Clear
11:55 PM 46.9 °F - 43.3 °F 87% 30.21 in 10.0 mi NW 3.5 mph - N/A   Clear